Wetbulb
58.39 58.38 58.60 58.89 58.82 58.93 58.66 58.46 58.59 58.75 58.87 59.03 59.51 59.68 59.74 59.63 58.64 61.96 61.27 57.95 62.82 65.93 63.49 58.67 57.86 57.45 57.27 55.29 56.82 56.48 50.06 49.18 51.41 53.55 55.74 59.48 56.83 58.85 59.72 58.12 59.40 60.71 64.04 69.52 71.74
57.90 58.01 58.15 58.59 58.69 58.43 58.04 58.12 58.32 58.48 58.73 59.11 59.44 59.37 59.37 59.33 59.99 59.79 64.10 65.79 67.80 67.05 55.89 55.73 55.40 56.40 54.02 54.83 55.20 52.27 49.66 50.75 55.00 56.11 55.84 58.14 57.33 57.11 56.75 57.11 57.85 62.87 65.78 69.69 70.82
57.57 57.66 57.89 58.01 58.07 57.77 57.74 57.82 58.11 58.31 58.74 58.81 58.81 58.66 58.91 58.88 59.09 57.88 65.85 67.30 67.07 64.46 59.82 59.53 57.50 55.62 53.35 55.33 54.36 53.09 49.11 53.12 53.98 55.36 55.97 56.15 56.00 57.85 56.19 54.82 57.57 57.29 65.78 68.58 69.37
57.21 57.45 57.50 57.60 57.51 57.48 57.47 57.69 57.88 57.75 58.41 58.31 58.12 58.46 59.16 60.27 52.76 58.60 68.76 68.53 67.41 61.05 59.76 57.12 55.59 53.53 53.44 52.33 54.86 50.83 53.83 53.74 53.88 54.95 54.70 53.97 56.40 56.08 56.38 57.18 59.78 60.22 60.55 64.73 67.48
56.81 56.91 56.85 56.98 57.00 56.96 56.89 57.04 57.38 57.47 57.39 57.50 58.09 58.83 59.90 59.70 57.58 61.38 68.50 66.12 59.42 58.30 56.92 55.36 54.00 54.45 52.57 53.55 53.46 51.88 53.30 54.41 54.95 54.65 54.32 55.27 54.61 55.10 56.19 58.83 60.35 59.86 59.98 60.22 61.32
56.50 56.71 56.50 56.57 56.55 56.61 56.65 56.50 56.46 56.72 57.08 57.99 59.43 58.81 60.30 55.58 61.60 61.79 62.12 60.79 60.89 58.58 56.60 56.54 56.06 56.41 53.87 53.46 52.76 54.22 53.83 53.61 54.67 54.37 54.95 53.50 54.06 55.85 57.03 59.00 58.55 59.10 59.21 59.36 60.00
56.40 56.36 56.06 55.96 56.16 56.43 56.43 56.25 56.03 56.46 57.61 59.71 60.10 60.85 59.56 57.15 61.03 62.04 60.34 59.80 60.92 59.98 57.39 58.47 57.84 55.25 55.84 53.42 56.33 54.40 50.84 52.95 54.11 54.53 54.50 55.60 52.64 53.37 57.48 58.38 57.76 58.58 59.70 59.97 60.55
56.01 55.73 55.55 55.61 55.84 56.15 56.42 56.17 55.85 57.49 59.01 60.95 59.56 61.01 58.64 59.42 61.57 60.16 61.29 60.18 60.69 60.89 59.14 59.77 58.83 56.21 55.14 55.96 53.69 51.09 51.75 48.70 53.76 54.42 55.23 54.32 50.54 55.80 58.87 58.03 57.02 57.94 58.86 59.61 60.37
55.59 55.12 54.95 55.43 55.49 55.92 55.56 55.27 56.24 58.94 61.05 61.26 61.43 61.68 58.75 62.70 58.89 61.13 60.79 59.05 59.13 58.74 59.22 58.92 56.60 54.84 55.25 51.91 49.92 51.53 48.21 50.39 51.72 55.13 53.77 53.57 51.34 55.75 59.60 59.23 57.91 58.10 58.77 59.43 60.28
55.35 54.73 54.56 54.77 55.24 55.10 54.38 54.85 60.00 58.07 61.74 62.89 62.70 58.85 61.04 57.38 59.95 60.19 60.08 60.66 56.49 56.76 55.90 55.92 54.73 52.44 52.83 51.11 46.86 48.73 49.28 50.58 49.99 53.37 53.66 51.94 52.36 55.87 59.06 59.64 60.30 61.65 62.89 63.84 64.44
55.17 54.50 54.34 54.38 54.73 54.24 54.46 60.06 58.03 58.18 58.34 56.45 55.76 57.18 58.09 59.59 59.90 58.58 58.66 57.39 56.76 55.74 52.61 55.67 51.06 50.50 51.68 52.18 51.69 50.80 49.97 48.99 51.62 53.64 52.03 51.65 52.17 56.45 59.62 60.01 60.75 62.76 64.46 66.42 68.36
54.59 54.54 54.54 54.28 54.07 53.75 55.89 56.26 55.24 56.65 52.35 57.15 55.86 55.92 58.68 58.98 55.55 56.77 58.37 54.75 54.39 52.12 52.82 52.51 51.03 52.57 52.72 52.57 51.70 51.50 50.53 50.78 52.63 53.62 52.41 52.38 54.75 57.77 57.51 59.73 62.22 63.76 64.67 65.64 68.56
54.21 54.07 54.23 53.91 53.50 56.59 58.76 56.71 59.66 59.16 53.40 54.11 55.03 55.74 56.19 57.69 55.57 55.36 56.66 55.89 53.40 51.77 51.64 52.04 52.05 52.97 52.41 52.48 51.52 52.41 50.09 49.43 49.29 51.79 53.06 52.64 51.24 52.41 56.95 61.53 62.69 63.46 65.91 67.03 67.33
53.99 53.80 53.85 53.31 54.99 58.86 58.13 58.66 59.42 59.90 50.77 50.49 51.43 54.35 56.21 56.52 53.07 57.85 57.85 56.32 53.09 51.53 51.53 52.77 53.65 51.91 52.43 51.88 51.67 50.46 52.73 51.39 50.44 49.69 47.00 53.38 45.48 51.23 55.10 58.62 61.01 61.82 62.85 64.52 66.97
53.78 53.87 53.62 52.41 56.45 57.34 57.74 58.94 58.86 58.19 45.52 53.66 53.20 58.11 56.33 54.16 55.49 54.53 58.31 56.09 52.81 51.82 52.51 51.63 51.48 51.45 52.06 52.30 52.66 50.47 52.73 51.82 52.24 50.14 50.43 51.15 50.33 50.07 52.18 55.61 58.53 60.76 61.98 63.51 65.69
53.80 53.87 53.21 57.33 57.97 59.82 59.61 58.95 58.12 49.18 44.80 50.83 52.91 51.51 51.86 53.74 53.74 55.32 55.07 57.15 56.75 52.97 52.87 52.90 54.89 53.06 53.11 53.61 54.10 53.99 52.15 53.18 53.43 51.01 46.47 51.14 50.85 46.22 48.93 55.27 57.94 60.40 61.46 63.02 64.22
53.46 53.35 52.41 55.88 56.65 59.91 59.22 56.84 49.47 46.86 54.01 49.76 49.46 51.96 52.37 51.42 51.90 52.90 52.65 52.40 51.81 49.34 49.91 51.62 51.42 54.37 55.01 52.38 55.10 53.95 51.90 46.73 46.03 44.82 43.64 51.13 48.59 51.83 56.01 57.63 58.88 59.70 61.05 62.58 63.75
52.08 51.41 55.13 57.66 59.85 58.67 58.26 52.86 46.09 50.72 51.05 53.48 52.01 52.18 50.51 52.27 51.71 52.20 52.54 51.36 54.03 54.12 51.96 49.24 47.42 52.95 54.93 52.88 51.47 52.29 51.99 47.12 41.09 42.49 44.93 51.43 47.79 51.13 57.48 59.06 59.98 60.74 61.76 62.13 62.23
50.35 57.79 58.87 60.47 60.95 59.45 54.78 48.13 50.31 51.66 53.31 51.52 51.65 50.09 50.16 51.59 52.11 52.31 53.93 52.61 53.52 54.38 51.60 50.57 49.83 54.55 54.48 54.58 53.83 51.96 50.29 53.65 48.80 50.55 46.69 48.00 49.53 55.49 58.14 57.84 58.48 59.29 60.60 60.26 60.15
53.11 55.59 57.10 61.82 61.18 58.30 52.36 48.06 52.26 54.53 53.99 53.37 49.28 51.53 49.05 50.26 50.71 52.43 52.23 54.69 53.69 54.85 56.49 54.14 49.20 53.61 54.09 54.95 54.93 54.31 54.80 49.61 50.28 43.49 41.31 45.83 44.74 48.23 54.39 55.27 56.75 57.54 58.20 58.93 59.89
53.79 54.60 60.17 61.14 59.81 54.32 48.93 51.16 52.23 54.54 54.69 52.88 52.16 50.94 52.12 50.88 51.86 51.43 52.83 54.21 54.58 54.19 55.70 55.32 53.92 52.40 55.14 52.92 52.09 51.75 49.03 51.46 52.05 49.55 43.43 42.37 46.35 56.63 55.10 55.90 55.73 56.53 57.80 58.09 58.85
55.32 50.62 60.67 59.73 51.38 52.99 50.30 52.72 49.70 52.88 55.41 54.48 55.03 53.37 51.74 51.77 50.78 51.69 52.42 53.82 55.58 55.68 52.72 56.08 52.50 48.08 50.03 54.33 55.47 54.31 51.84 52.24 46.05 45.39 47.82 46.59 45.80 56.99 56.76 56.85 57.17 57.13 58.01 58.76 59.32
52.90 54.63 60.32 58.59 48.96 50.31 53.02 51.85 52.77 52.33 53.38 53.21 52.34 54.57 55.14 52.38 50.60 52.50 53.81 54.68 55.04 54.94 52.67 54.71 52.65 46.91 48.55 52.27 54.84 52.21 53.33 52.77 52.36 52.79 46.78 43.87 46.44 57.28 57.57 56.71 57.83 57.04 57.79 58.25 59.04
53.84 50.95 55.22 54.58 53.99 52.86 52.47 50.75 50.38 54.75 53.69 54.50 53.65 54.26 53.15 51.63 53.45 51.73 52.30 53.64 54.39 54.04 57.62 57.47 52.33 49.38 45.32 48.23 51.35 48.94 50.11 50.92 50.59 46.41 46.71 46.88 48.28 52.27 55.12 55.15 56.69 57.09 57.66 57.85 58.48
53.40 53.81 56.44 49.04 50.13 52.43 54.00 52.09 50.48 50.38 53.59 54.86 52.89 53.15 52.05 50.56 51.25 50.86 52.50 53.16 53.91 53.90 55.64 56.26 49.95 51.23 51.43 51.59 50.74 49.66 49.39 49.80 48.56 49.29 46.04 47.97 49.06 52.97 55.00 55.56 56.47 57.56 57.89 57.23 57.36
52.13 53.37 56.79 53.72 54.56 51.87 50.16 51.72 51.16 52.06 52.11 51.92 52.32 52.72 53.09 52.11 52.23 51.71 52.49 53.03 53.98 55.50 54.79 56.88 50.12 51.57 49.20 51.34 50.96 49.04 50.46 50.68 50.37 49.76 49.21 50.36 49.92 54.93 56.62 56.95 56.27 55.79 55.87 55.35 56.06
56.97 57.40 55.82 51.50 53.34 51.63 51.18 52.24 52.38 53.82 53.71 55.03 53.93 52.91 51.98 54.78 56.95 57.37 57.87 56.92 56.03 53.23 53.56 53.37 51.65 49.49 45.70 50.16 49.76 46.87 50.10 50.58 50.70 51.42 50.56 47.14 51.52 54.53 53.51 54.10 54.43 55.41 55.77 55.17 55.23
MSLP
1019.88 1019.40 1018.98 1018.65 1018.45 1017.91 1017.24 1016.57 1016.09 1015.69 1015.23 1014.83 1014.34 1013.88 1013.53 1013.12 1012.16 1011.31 1009.52 1008.58 1008.14 1008.04 1008.12 1006.92 1005.68 1005.08 1004.71 1004.04 1003.19 1003.03 1002.52 1001.08 999.76 998.67 997.96 998.14 998.37 998.42 998.64 998.41 998.22 998.25 999.26 1000.39 1001.43
1019.86 1019.35 1018.96 1018.80 1018.46 1017.81 1016.95 1016.44 1015.97 1015.53 1014.99 1014.62 1014.09 1013.72 1013.45 1013.17 1011.62 1009.30 1008.35 1008.17 1008.07 1008.22 1007.78 1005.97 1004.69 1004.20 1003.80 1002.93 1002.56 1002.57 1001.71 1000.12 999.27 998.81 998.69 998.43 998.83 999.00 998.76 998.56 998.09 998.29 999.21 1000.14 1000.84
1019.75 1019.39 1019.13 1018.90 1018.41 1017.48 1016.76 1016.34 1015.81 1015.28 1014.84 1014.35 1013.83 1013.58 1013.38 1013.03 1010.59 1007.93 1008.06 1007.89 1008.05 1008.21 1007.51 1005.91 1004.81 1003.99 1003.00 1002.18 1001.85 1001.67 1001.46 1000.24 999.74 999.75 999.73 999.50 999.45 999.23 998.95 998.66 998.30 998.48 999.13 999.54 1000.11
1019.85 1019.62 1019.24 1018.78 1018.11 1017.29 1016.66 1016.16 1015.56 1014.97 1014.66 1014.07 1013.64 1013.39 1013.24 1012.29 1008.83 1007.59 1007.86 1007.98 1008.17 1008.03 1007.07 1005.38 1004.55 1003.48 1002.22 1001.69 1001.42 1001.53 1000.89 1000.86 1000.63 1000.30 1000.12 1000.06 999.80 999.32 999.33 999.02 998.73 998.54 998.53 998.80 999.27
1019.98 1019.66 1019.12 1018.59 1017.90 1017.00 1016.52 1015.84 1015.12 1014.66 1014.32 1013.75 1013.37 1013.19 1012.63 1010.35 1007.13 1007.38 1007.76 1007.92 1007.79 1007.36 1005.98 1004.70 1003.95 1002.99 1002.10 1001.43 1001.52 1001.39 1000.85 1000.63 1000.51 1000.40 1000.43 1000.15 999.79 999.60 999.10 998.62 998.29 998.36 998.41 998.37 998.45
1019.98 1019.52 1018.90 1018.40 1017.53 1016.81 1016.24 1015.40 1014.79 1014.27 1013.86 1013.34 1013.08 1013.10 1011.78 1008.14 1005.84 1006.69 1006.85 1006.90 1006.63 1005.65 1004.90 1004.36 1003.52 1003.23 1002.78 1002.02 1001.62 1001.18 1000.96 1000.73 1000.33 1000.05 999.91 999.75 999.47 999.17 998.69 998.45 998.33 998.12 998.21 998.23 997.98
1019.94 1019.73 1018.85 1018.18 1017.28 1016.69 1015.94 1015.11 1014.41 1013.90 1013.42 1012.96 1012.81 1012.55 1010.01 1006.58 1005.61 1005.90 1006.19 1005.90 1005.44 1005.17 1004.53 1004.11 1004.14 1003.71 1002.92 1002.07 1001.38 1001.29 1001.00 1000.01 999.62 999.66 999.59 999.63 999.24 998.67 998.44 998.62 998.36 998.10 997.96 998.16 998.33
1019.86 1019.45 1018.76 1017.98 1017.17 1016.37 1015.48 1014.65 1013.97 1013.37 1012.98 1012.65 1012.69 1011.83 1007.84 1005.94 1005.83 1005.82 1005.61 1005.43 1005.41 1005.23 1005.10 1004.68 1004.40 1004.02 1003.31 1002.41 1001.69 1001.10 1000.21 999.32 999.34 999.57 999.47 999.53 998.31 998.30 998.51 998.64 998.54 998.30 998.20 998.08 998.49
1019.90 1019.49 1018.67 1017.84 1016.83 1015.87 1015.05 1014.17 1013.37 1012.77 1012.73 1012.51 1012.01 1010.40 1006.49 1006.38 1005.84 1005.32 1005.33 1004.80 1004.78 1005.02 1004.95 1004.84 1004.64 1003.70 1002.73 1001.93 1001.03 1000.15 998.96 998.72 998.93 999.34 999.75 999.32 998.57 998.34 998.61 998.79 998.67 998.58 998.59 998.50 998.57
1020.12 1019.45 1018.64 1017.65 1016.51 1015.62 1014.66 1013.04 1012.27 1012.44 1011.97 1011.43 1010.23 1009.01 1006.26 1005.24 1005.21 1005.33 1005.18 1005.03 1004.79 1004.47 1004.43 1004.33 1003.74 1002.88 1001.92 1001.11 1000.49 999.97 999.23 999.25 999.37 999.49 999.79 999.75 999.09 999.01 999.28 999.07 999.18 999.43 999.62 999.64 999.72
1019.83 1019.38 1018.38 1017.36 1016.22 1015.21 1014.33 1012.05 1012.12 1011.84 1010.61 1008.34 1007.45 1006.53 1005.51 1005.46 1005.60 1004.98 1005.06 1005.02 1004.68 1004.26 1003.38 1002.91 1002.49 1001.59 1001.65 1001.70 1001.43 1001.09 1000.45 999.99 999.57 999.84 1000.37 1000.47 1000.33 1000.30 1000.38 1000.11 1000.57 1000.58 1000.85 1000.43 1000.84
1019.75 1019.18 1018.17 1017.30 1016.30 1014.77 1014.61 1012.22 1012.13 1011.75 1009.76 1007.04 1006.64 1006.17 1005.91 1005.75 1005.00 1004.83 1004.95 1004.65 1004.12 1003.24 1002.83 1002.52 1001.77 1002.06 1002.19 1002.09 1001.73 1001.13 1000.55 1000.15 999.94 1000.04 1000.70 1000.86 1003.06 1003.60 1003.80 1002.36 1001.69 1001.62 1001.70 1001.77 1001.90
1019.65 1019.08 1018.09 1017.22 1015.80 1014.70 1012.72 1012.18 1011.30 1010.99 1009.88 1006.52 1005.75 1005.22 1005.44 1005.49 1004.38 1004.43 1004.78 1004.11 1003.72 1002.99 1002.45 1001.74 1002.05 1002.46 1002.26 1001.58 1001.30 1000.81 1000.95 1001.05 1000.86 1000.53 1000.60 1001.37 1005.59 1006.28 1005.02 1002.65 1002.72 1002.56 1002.45 1002.85 1003.20
1019.83 1019.05 1018.65 1017.32 1015.68 1013.71 1012.05 1011.89 1011.44 1011.37 1009.47 1006.23 1005.32 1004.62 1004.98 1004.96 1004.54 1004.51 1004.53 1004.44 1003.50 1002.73 1002.47 1001.85 1002.32 1002.43 1001.91 1001.40 1001.53 1000.77 1001.32 1001.26 1000.96 1000.64 1000.06 1001.03 1006.23 1007.83 1005.92 1003.50 1003.48 1003.56 1003.23 1003.33 1003.86
1019.80 1019.48 1018.67 1018.69 1016.80 1013.43 1012.52 1011.87 1011.79 1011.47 1007.82 1005.25 1004.39 1004.43 1004.18 1004.37 1004.34 1004.51 1004.61 1004.38 1003.44 1002.74 1002.96 1002.23 1002.08 1002.15 1001.80 1001.78 1002.08 1001.75 1001.80 1001.50 1001.00 1000.87 1000.68 1001.36 1004.60 1008.06 1006.46 1004.20 1004.16 1004.24 1004.21 1004.09 1004.34
1019.95 1019.48 1019.15 1016.28 1015.91 1013.47 1012.36 1012.08 1011.67 1010.43 1006.15 1004.79 1004.22 1004.24 1004.23 1004.14 1004.01 1004.35 1004.56 1004.55 1003.77 1003.34 1002.90 1002.43 1002.52 1002.55 1002.27 1002.21 1001.88 1001.88 1001.80 1001.29 1001.11 1001.02 1001.29 1002.53 1003.97 1008.45 1007.29 1004.51 1004.41 1004.60 1004.75 1004.86 1005.00
1019.70 1019.29 1019.39 1017.72 1014.47 1013.41 1012.88 1011.93 1010.44 1007.55 1004.88 1004.63 1004.11 1003.93 1003.46 1003.73 1003.92 1004.08 1004.07 1003.82 1003.31 1003.03 1002.38 1002.22 1002.14 1002.18 1002.46 1001.66 1001.22 1001.33 1001.43 1000.92 1000.80 1002.38 1002.82 1003.32 1003.33 1004.74 1004.91 1004.78 1005.01 1005.10 1005.16 1005.46 1005.79
1019.02 1018.53 1016.73 1015.80 1014.64 1013.84 1013.04 1011.52 1008.80 1004.95 1004.27 1004.06 1003.65 1003.43 1003.38 1003.52 1003.68 1003.74 1003.55 1003.38 1003.70 1003.57 1002.48 1001.54 1001.98 1002.04 1002.57 1002.37 1002.08 1001.88 1002.10 1002.35 1002.52 1002.42 1002.53 1002.89 1004.77 1004.85 1005.11 1005.34 1005.46 1005.58 1005.96 1006.39 1006.65
1018.78 1016.37 1015.05 1013.60 1013.64 1013.78 1012.76 1010.07 1006.63 1005.03 1004.66 1004.50 1003.85 1003.46 1003.50 1003.78 1003.66 1003.63 1003.74 1004.13 1004.85 1004.79 1004.25 1002.99 1002.35 1002.70 1002.94 1002.95 1002.84 1002.58 1002.63 1003.34 1003.46 1002.97 1003.37 1004.91 1006.54 1006.24 1005.48 1005.87 1006.08 1006.15 1006.71 1007.32 1007.61
1018.77 1016.07 1013.52 1012.75 1013.62 1013.39 1011.91 1008.97 1006.68 1006.10 1005.40 1004.78 1003.91 1003.44 1003.42 1003.75 1003.87 1003.66 1004.29 1005.70 1005.89 1005.63 1005.12 1004.66 1004.08 1003.03 1003.04 1003.02 1002.86 1003.17 1003.38 1003.53 1003.79 1004.17 1004.53 1004.25 1006.36 1006.40 1006.51 1007.05 1007.02 1007.06 1007.62 1008.06 1008.18
1018.77 1015.08 1013.03 1012.69 1013.28 1012.59 1010.36 1007.96 1006.79 1006.63 1006.23 1005.37 1004.52 1003.92 1003.36 1003.69 1003.91 1003.80 1005.14 1006.78 1006.82 1006.39 1006.01 1006.08 1005.60 1004.12 1003.29 1003.27 1003.48 1003.58 1003.89 1004.61 1005.45 1005.93 1005.99 1005.97 1006.28 1006.83 1007.47 1008.08 1008.32 1008.24 1008.51 1008.71 1008.87
1017.53 1014.20 1012.75 1012.89 1012.51 1010.89 1009.28 1007.71 1008.10 1006.86 1006.82 1006.06 1005.45 1004.50 1004.48 1004.69 1004.77 1004.72 1006.10 1007.27 1007.78 1007.46 1006.98 1007.62 1007.20 1006.03 1004.84 1004.29 1004.55 1004.77 1004.98 1005.91 1006.88 1007.14 1007.44 1007.63 1007.22 1007.57 1008.15 1008.75 1009.21 1009.29 1009.40 1009.39 1009.64
1016.30 1013.24 1012.91 1012.75 1011.26 1009.74 1008.82 1008.27 1007.92 1007.07 1006.68 1006.45 1005.97 1005.63 1005.58 1005.53 1005.97 1006.17 1007.08 1008.37 1008.39 1008.64 1009.22 1009.13 1007.92 1007.10 1005.01 1004.98 1005.39 1005.35 1005.66 1006.43 1006.99 1007.52 1007.90 1007.93 1007.52 1007.69 1008.32 1009.25 1009.63 1009.96 1010.06 1009.97 1010.08
1016.58 1012.90 1012.52 1012.52 1011.44 1010.53 1008.81 1008.42 1008.06 1007.45 1006.85 1006.79 1006.49 1006.45 1006.50 1006.55 1006.93 1006.99 1007.46 1008.69 1009.03 1009.66 1010.22 1010.13 1009.40 1008.72 1007.72 1006.71 1006.64 1006.45 1006.55 1006.82 1007.25 1007.73 1007.86 1008.05 1007.97 1008.06 1009.31 1009.97 1010.28 1010.29 1010.39 1010.48 1010.42
1016.32 1012.76 1011.68 1011.24 1010.86 1010.12 1009.21 1008.33 1007.86 1007.79 1007.57 1007.39 1007.29 1006.97 1006.98 1007.03 1007.02 1007.19 1007.73 1008.36 1009.27 1010.06 1010.16 1010.57 1010.00 1009.12 1008.30 1007.71 1007.22 1006.85 1006.79 1006.99 1007.31 1007.85 1008.55 1008.87 1008.98 1009.63 1010.19 1010.43 1010.47 1011.07 1011.17 1011.38 1011.22
1015.67 1013.37 1011.88 1011.34 1010.35 1009.96 1009.73 1008.65 1007.79 1007.59 1007.66 1007.61 1007.52 1007.40 1007.52 1007.84 1007.70 1007.74 1008.23 1008.75 1009.05 1009.71 1010.25 1010.83 1010.60 1009.89 1009.02 1007.93 1006.92 1007.13 1007.31 1007.33 1007.88 1008.67 1009.15 1009.37 1009.91 1010.67 1011.34 1011.56 1011.51 1011.57 1011.92 1012.48 1012.24
1014.94 1014.26 1013.47 1011.17 1010.61 1009.95 1009.32 1008.81 1008.15 1007.58 1008.06 1007.74 1007.84 1007.97 1008.28 1008.70 1009.01 1009.45 1009.71 1010.10 1010.33 1010.70 1010.94 1011.19 1011.09 1010.61 1009.36 1008.49 1008.17 1007.90 1008.54 1008.80 1009.37 1009.81 1010.13 1010.30 1010.98 1011.32 1011.65 1011.92 1012.12 1012.36 1012.86 1013.36 1013.21
Wind_Speed
13 15 15 16 16 16 17 17 17 17 17 18 18 17 17 18 21 7 9 2 2 4 7 13 9 10 11 12 14 10 9 12 17 15 8 6 6 12 4 10 6 3 16 19 14
14 15 16 17 17 17 17 19 19 18 18 18 17 16 16 15 12 15 1 3 2 5 8 12 10 8 10 12 6 7 10 15 13 13 15 12 8 10 10 8 12 20 15 15 13
15 16 17 18 18 18 18 20 20 19 18 18 17 16 14 15 10 6 3 5 3 4 12 17 10 9 14 9 7 9 11 17 16 14 14 12 11 13 8 13 15 14 12 15 13
16 17 18 19 20 19 20 21 20 20 19 18 17 14 11 7 3 7 5 5 4 7 13 13 8 14 12 7 3 8 12 7 11 13 6 10 14 11 10 13 13 13 9 7 13
16 17 19 20 20 20 21 21 21 20 19 17 14 11 8 8 5 10 8 7 9 11 14 9 10 11 11 3 3 10 12 5 9 8 10 14 12 11 16 12 13 11 13 13 8
16 18 19 21 21 21 22 22 20 20 18 15 10 7 7 11 9 12 11 9 14 14 6 11 11 11 10 7 11 13 10 12 11 9 10 12 13 15 11 9 11 8 6 10 10
15 17 19 22 23 23 22 22 20 19 16 12 6 6 10 9 1 7 5 11 3 9 8 4 9 11 13 13 7 9 12 17 10 5 7 6 13 14 4 8 8 6 7 7 6
16 18 20 22 23 24 23 22 21 16 14 11 4 9 9 4 6 5 9 8 6 7 7 8 9 11 13 12 14 14 17 16 12 2 6 8 5 8 9 7 10 8 9 2 1
17 19 21 23 25 25 25 23 19 11 11 9 6 9 7 4 8 5 6 10 5 6 7 6 9 13 15 14 15 15 12 5 8 9 4 9 10 9 8 7 7 4 9 10 6
16 19 21 24 26 26 26 19 5 10 9 9 11 9 9 2 4 5 5 8 6 5 9 11 11 13 15 11 10 15 11 4 4 8 7 14 9 6 8 11 18 19 18 16 14
17 19 22 25 28 27 16 7 5 6 10 11 3 9 1 2 2 7 3 7 6 9 12 16 10 4 13 9 9 10 7 8 5 3 3 11 6 11 13 18 16 14 13 9 15
17 20 23 26 28 30 11 7 8 7 11 10 8 7 2 3 4 3 3 8 5 11 2 9 8 9 5 3 7 7 9 11 9 2 5 12 21 26 25 11 16 17 16 16 19
17 20 24 28 30 13 6 8 9 6 7 7 7 9 9 9 4 5 7 7 10 10 8 10 13 3 6 9 7 10 4 8 11 12 11 3 19 29 29 14 17 16 17 17 17
16 19 22 28 8 11 3 9 10 5 6 11 9 5 5 8 5 3 2 8 5 12 1 6 9 3 7 5 8 7 8 8 12 12 13 12 6 12 15 15 16 15 16 17 17
16 17 21 10 11 8 10 10 9 4 5 14 11 6 8 9 4 7 3 7 14 2 7 6 2 1 9 12 7 13 5 11 10 14 13 12 11 9 24 11 14 15 15 16 18
15 16 18 6 8 13 12 12 7 6 3 6 6 9 10 9 5 7 6 8 6 9 7 10 4 4 9 8 9 8 11 16 15 11 5 4 9 8 9 9 12 14 14 14 17
16 17 12 9 7 15 11 7 6 8 8 7 9 12 13 6 6 9 9 11 7 8 9 7 9 5 5 13 9 6 9 10 6 4 4 16 8 9 9 11 13 12 14 14 16
19 22 9 9 11 11 8 6 7 3 3 4 8 12 6 9 5 5 8 8 3 12 15 6 10 5 4 7 9 9 7 7 12 10 9 15 12 12 14 12 13 14 15 15 16
24 7 7 9 9 4 7 8 6 5 6 5 6 9 8 1 4 10 10 13 8 10 10 9 6 4 3 7 8 10 9 11 10 14 10 6 6 5 12 11 11 12 14 14 15
8 8 10 8 3 5 6 10 6 6 6 6 9 9 9 10 8 7 7 8 7 6 10 10 7 2 3 5 9 2 7 8 4 7 13 14 10 5 9 9 11 13 13 12 13
5 6 6 4 5 6 8 8 3 3 3 4 9 4 4 8 10 5 12 9 7 9 8 10 8 8 10 3 10 11 11 9 7 8 10 9 7 8 7 9 9 11 10 10 12
6 5 6 5 6 7 11 5 2 6 4 3 9 7 1 3 4 5 14 9 8 8 10 9 5 8 15 9 10 9 5 9 4 11 11 10 10 11 9 10 7 9 11 11 10
5 6 3 4 6 8 5 3 4 3 6 4 3 7 6 1 3 5 10 5 7 10 7 9 5 6 7 11 4 9 9 7 9 4 10 9 7 6 10 13 13 10 10 10 9
6 4 5 5 8 11 8 7 6 5 3 3 1 1 3 2 2 2 8 3 6 10 2 3 4 6 8 15 11 8 10 11 9 7 10 12 16 15 13 9 6 7 3 9 10
5 5 3 5 9 10 10 7 10 7 3 4 3 7 5 2 4 4 3 9 5 4 4 4 4 7 10 13 14 14 12 12 11 8 8 13 12 15 13 13 14 14 8 7 8
6 4 5 7 6 9 5 10 12 10 7 7 5 7 3 4 3 4 3 3 7 4 4 3 5 9 11 15 12 10 14 12 9 8 11 9 9 11 12 10 14 16 14 15 13
5 6 5 4 4 6 9 10 10 8 1 6 7 3 3 11 12 10 7 4 4 3 5 4 5 7 9 11 14 11 11 10 8 11 12 11 11 14 14 12 14 13 18 16 17
Wind_Direction
348 349 345 337 325 323 324 329 326 321 320 314 313 316 318 319 306 212 263 30 271 352 326 270 233 246 225 256 253 283 269 268 264 272 260 90 34 350 347 308 321 272 101 120 142
347 345 342 331 323 321 328 325 321 318 319 310 311 314 319 321 290 257 352 212 107 34 249 249 250 209 245 233 224 224 245 254 284 354 344 3 13 331 321 324 308 77 94 119 148
347 341 335 326 321 326 329 321 318 317 314 308 310 312 317 312 277 87 216 177 195 261 271 282 294 279 258 240 218 245 249 299 329 3 333 315 313 279 342 305 335 355 125 154 152
343 336 333 326 323 325 325 317 314 316 309 306 308 312 315 269 337 92 134 171 225 274 273 266 254 260 259 222 168 270 266 294 304 308 276 268 268 305 302 291 310 291 295 190 163
340 335 333 325 322 328 319 314 314 309 305 304 308 314 283 232 234 131 152 190 222 232 252 263 258 262 280 311 293 242 276 320 286 260 262 268 283 290 271 287 283 331 300 290 253
337 334 334 325 325 325 315 314 309 306 304 302 308 312 252 260 94 139 200 185 239 231 253 271 305 358 308 306 298 320 314 296 274 284 265 251 266 258 276 346 316 313 340 320 305
339 330 332 325 325 318 313 311 309 302 300 300 316 272 265 291 83 152 203 245 325 294 272 246 310 299 305 283 286 286 279 270 225 223 291 331 257 239 249 331 332 290 355 13 303
340 332 330 326 322 316 315 313 306 300 296 291 304 266 278 64 325 209 237 254 235 267 277 306 297 283 275 282 286 250 252 255 133 266 145 264 329 107 46 344 333 1 297 118 162
337 331 328 324 322 317 318 308 294 297 275 282 255 231 264 132 228 212 274 252 177 250 264 297 274 271 273 250 257 232 265 110 136 120 308 274 316 56 55 340 277 279 343 1 6
331 331 327 324 321 318 322 291 261 309 221 248 258 267 240 218 72 323 271 285 248 271 244 229 249 241 227 260 350 346 360 109 281 105 28 301 308 31 35 30 42 33 19 7 0
336 330 330 326 321 321 337 311 228 192 237 276 177 259 250 67 220 221 146 222 246 242 261 203 260 300 20 360 334 315 322 283 265 21 326 289 314 54 37 65 51 47 30 18 55
335 332 332 327 318 319 291 359 29 318 299 235 252 273 294 272 242 227 205 249 213 272 221 238 225 52 354 328 302 282 274 14 314 128 249 280 31 23 77 312 62 53 63 34 38
335 334 332 324 320 298 320 16 327 338 264 192 209 211 178 219 280 165 216 243 268 270 246 289 67 82 284 278 275 241 11 354 305 299 257 212 44 356 308 77 69 49 71 66 43
331 337 328 331 314 337 346 352 344 360 278 149 187 176 179 230 223 41 277 312 243 302 193 308 81 312 282 256 321 22 16 309 303 291 284 192 124 195 283 83 74 54 39 61 63
331 329 329 326 305 322 354 330 345 269 255 160 135 100 175 223 123 157 201 251 278 280 268 77 234 288 292 26 342 309 356 298 285 278 294 146 110 315 329 84 73 63 44 40 56
319 324 335 314 253 266 326 328 281 236 209 136 141 188 186 211 185 116 204 231 293 274 237 299 65 277 345 304 260 301 283 273 263 253 237 130 140 215 226 66 76 71 54 38 47
312 308 304 307 287 333 326 286 234 258 143 141 174 174 190 158 152 193 195 205 258 233 205 194 192 149 245 293 210 236 317 316 250 333 86 243 306 122 121 81 79 65 55 49 46
313 307 259 248 289 292 302 253 258 108 117 143 173 207 140 170 140 180 197 155 67 346 319 249 154 153 29 356 338 312 317 12 332 335 336 218 19 103 82 65 72 56 53 38 46
303 273 233 236 230 298 270 241 342 1 87 176 232 182 135 101 275 217 66 36 48 358 339 346 55 101 87 326 328 357 15 336 309 290 267 98 27 263 96 58 40 58 51 33 48
322 294 257 133 164 250 252 260 318 26 349 287 213 222 176 172 234 233 132 38 354 6 342 359 306 128 18 277 220 347 311 341 328 330 336 330 120 195 46 29 23 38 35 32 32
275 249 101 202 193 235 244 270 121 63 308 289 301 198 328 133 264 196 82 72 8 349 307 27 323 315 278 28 5 346 340 358 349 313 317 338 27 93 71 64 11 17 21 43 26
271 246 121 189 224 228 244 267 352 147 210 288 301 316 332 19 264 33 64 53 346 348 343 46 315 306 309 336 38 323 11 37 357 331 337 316 307 71 66 72 46 19 21 25 6
255 235 140 227 234 230 208 257 253 183 204 215 283 345 353 28 26 360 96 41 3 36 24 350 24 307 287 140 72 358 6 334 327 294 282 297 309 152 84 3 24 11 14 352 4
278 227 144 202 273 285 275 233 203 313 131 300 305 216 215 218 222 126 130 105 47 70 326 319 303 294 297 313 327 312 311 311 311 291 309 307 326 344 48 53 28 341 354 349 338
254 259 354 190 239 256 281 208 204 178 241 207 190 240 226 236 235 212 41 143 154 129 188 27 288 312 309 317 305 293 303 318 309 333 335 331 347 17 8 353 2 45 38 331 322
292 308 327 282 283 212 230 253 223 177 190 199 260 224 81 269 12 351 62 343 57 102 39 45 303 308 301 283 291 326 296 296 30 3 318 308 42 9 46 348 355 351 24 29 18
242 282 279 235 216 231 218 237 235 166 324 293 213 158 220 61 42 36 49 40 49 4 351 312 344 315 296 326 320 283 29 37 357 355 343 332 12 8 1 357 346 26 21 12 358